TimeMDT,TemperatureF,Dew PointF,Humidity,Sea Level PressureIn,VisibilityMPH,Wind Direction,Wind SpeedMPH,Gust SpeedMPH,PrecipitationIn,Events,Conditions,WindDirDegrees,DateUTC
12:53 AM,48.9,30.9,50,30.03,10.0,SSW,9.2,-,N/A,,Clear,200,2012-11-01 06:53:00
1:53 AM,48.9,30.9,50,30.01,10.0,SSW,8.1,-,N/A,,Clear,200,2012-11-01 07:53:00
2:53 AM,48.0,30.0,50,30.00,10.0,SW,11.5,-,N/A,,Clear,220,2012-11-01 08:53:00
3:53 AM,46.9,30.0,52,29.99,10.0,SSW,9.2,-,N/A,,Clear,210,2012-11-01 09:53:00
4:53 AM,44.1,28.9,55,29.99,10.0,SW,9.2,-,N/A,,Clear,220,2012-11-01 10:53:00
5:53 AM,44.1,28.9,55,30.01,10.0,SW,9.2,-,N/A,,Clear,230,2012-11-01 11:53:00
6:53 AM,46.0,28.9,51,30.01,10.0,SW,9.2,-,N/A,,Clear,220,2012-11-01 12:53:00
7:53 AM,48.9,30.0,48,29.99,10.0,SSW,9.2,-,N/A,,Clear,210,2012-11-01 13:53:00
8:53 AM,53.1,33.1,47,29.97,10.0,SSW,6.9,-,N/A,,Clear,210,2012-11-01 14:53:00
9:53 AM,60.1,32.0,35,29.95,10.0,SSW,8.1,-,N/A,,Clear,210,2012-11-01 15:53:00
10:53 AM,66.0,28.9,25,29.94,10.0,SSW,11.5,-,N/A,,Clear,200,2012-11-01 16:53:00
11:53 AM,69.1,27.0,21,29.91,10.0,South,16.1,23.0,N/A,,Clear,190,2012-11-01 17:53:00
1:53 PM,72.0,27.0,19,29.83,10.0,SSW,11.5,-,N/A,,Clear,210,2012-11-01 19:53:00
2:53 PM,70.0,24.1,18,29.82,10.0,SSW,6.9,-,N/A,,Clear,210,2012-11-01 20:53:00
3:53 PM,68.0,26.1,21,29.83,10.0,West,4.6,-,N/A,,Clear,260,2012-11-01 21:53:00
5:53 PM,55.0,35.1,47,29.87,10.0,WNW,5.8,-,N/A,,Clear,290,2012-11-01 23:53:00
6:53 PM,55.9,33.1,42,29.87,10.0,Calm,Calm,-,N/A,,Clear,0,2012-11-02 00:53:00
7:53 PM,59.0,27.0,29,29.85,10.0,Calm,Calm,-,N/A,,Clear,0,2012-11-02 01:53:00
8:53 PM,55.0,28.9,37,29.84,10.0,Calm,Calm,-,N/A,,Clear,0,2012-11-02 02:53:00
9:53 PM,50.0,33.1,52,29.83,10.0,West,9.2,-,N/A,,Clear,280,2012-11-02 03:53:00
10:53 PM,48.9,34.0,56,29.82,10.0,West,12.7,-,N/A,,Clear,270,2012-11-02 04:53:00
11:53 PM,48.0,36.0,63,29.80,10.0,West,11.5,-,N/A,,Clear,260,2012-11-02 05:53:00